Location: Sternwarte Stuttgart
(48.7824°N, 9.1965°E)
Time: 18:36:25
(UTC+00:00)

Daily predictions for brighter satellites

Satellite Brightness Start Highest point End
(mag) Time Altitude Azimuth Time Altitude Azimuth Time Altitude Azimuth
SL-8 Rocket 4.1 16:50:57 10° S 16:56:58 57° E 17:03:04 10° NNE
Aureole 1 Rocket 4.0 16:53:33 10° S 16:59:43 47° ESE 17:04:27 10° NE
Cosmos 2322 4.2 16:54:33 10° NNW 16:59:59 41° NE 17:05:23 10° ESE
Cosmos 1315 Rocket 4.0 16:57:07 10° NNE 17:00:24 23° ENE 17:03:42 10° ESE
USA 116 4.4 16:57:44 10° NNE 17:02:45 67° ESE 17:08:02 10° S
MONITOR-E 4.5 17:01:36 10° SE 17:04:33 44° ENE 17:07:30 10° N
Cosmos 1626 2.4 17:01:30 10° N 17:05:07 44° ENE 17:08:42 10° SSE
Meteor 1-16 Rocket 4.1 17:02:10 10° S 17:07:23 62° E 17:12:41 10° NNE
Cosmos 1833 Rocket 4.3 17:02:43 10° WSW 17:07:45 33° NW 17:12:49 10° NNE
Resurs 01 Rocket 3.6 17:07:06 10° ENE 17:07:46 10° NE 17:08:26 10° NE
Cosmos 2221 4.0 17:05:32 10° ESE 17:08:08 16° E 17:10:45 10° NE
Cosmos 1500 Rocket 3.9 17:05:45 10° N 17:09:55 42° ENE 17:14:02 10° SSE
Gbstr 26 Del rocket 3.6 17:05:39 10° WNW 17:10:17 65° N 17:16:06 10° E
Cosmos 1624 Rocket 4.2 17:05:16 10° NNW 17:10:30 80° WSW 17:15:44 10° SSE
deb Kosmos-1763 4.2 17:07:21 10° S 17:11:07 58° ESE 17:14:54 10° NNE
Meteor 2-15 Rocket 4.5 17:05:40 10° N 17:11:48 87° E 17:17:55 10° S
FENGYUN 3A 4.0 17:07:07 10° SE 17:12:14 45° ENE 17:17:23 10° N
Cosmos 921 Rocket 3.7 17:09:27 10° N 17:13:37 35° ENE 17:17:41 10° SE
Abrixas rocket 2.9 17:10:33 10° SW 17:13:41 41° SSE 17:16:32 12° E
Cosmos 2058 3.2 17:11:46 10° N 17:15:51 47° ENE 17:19:53 10° SSE
RESURS DK-1 2.6 17:12:48 10° NNW 17:16:52 50° NE 17:20:53 10° SE
Cosmos 2218 Rocket 3.9 17:12:18 10° S 17:18:23 68° E 17:24:29 10° NNE
Cosmos 1461 2.8 17:14:28 10° SSW 17:18:31 75° SE 17:22:46 10° NE
Meteor 2-21 4.5 17:12:33 10° S 17:18:38 88° W 17:24:43 10° N
Cosmos 1470 4.4 17:16:15 10° SW 17:20:00 39° WNW 17:23:47 10° N
EO 1 Del DPAF 3.2 17:16:16 10° NNE 17:20:06 63° ESE 17:23:55 10° S
Cosmos 1420 Rocket 4.5 17:15:21 10° NNW 17:20:25 42° ENE 17:25:26 10° SE
SMAP 4.5 17:16:22 10° S 17:20:48 44° W 17:25:17 10° NNW
Cosmos 1680 Rocket 4.3 17:16:34 10° SW 17:21:45 56° WNW 17:26:57 10° NNE
Cosmos 2219 Rocket 3.2 17:18:04 10° NNW 17:22:44 26° NE 17:26:47 12° E
Cosmos 1727 Rocket 4.0 17:18:57 10° N 17:25:20 71° E 17:31:40 10° SSE
Aureole 2 Rocket 4.4 17:23:22 10° NNE 17:25:45 16° NE 17:27:01 14° ENE
Lacrosse 5 rocket 2.1 17:21:32 10° WSW 17:25:56 51° NNW 17:30:07 10° NE
Cosmos 1339 Rocket 4.5 17:20:30 10° N 17:26:54 75° E 17:33:11 10° SSE
MOS 1 4.4 17:22:23 10° SSE 17:28:04 84° WSW 17:33:48 10° NNW
Lacrosse 4 Rocket 4.2 17:28:32 10° NW 17:29:53 11° NNW 17:31:13 10° N
SJ-6B 3.8 17:27:37 10° ESE 17:30:37 24° ENE 17:33:40 10° NNE
Envisat 4.5 17:28:26 14° E 17:30:38 18° ENE 17:33:57 10° NNE
COSMO-SKYMED 1 2.5 17:26:27 10° NNE 17:30:48 66° ESE 17:35:07 10° S
SL-16 R/B 3.4 17:28:13 10° NW 17:33:38 46° WSW 17:39:01 10° S
Cosmos 2237 4.3 17:30:46 10° NNW 17:36:28 61° ENE 17:42:07 10° SE
Cosmos 1703 3.3 17:39:26 10° N 17:43:24 86° W 17:47:19 10° S
Sich 1 4.2 17:40:26 10° NNE 17:43:57 24° ENE 17:45:18 20° E
CZ-4C R/B 3.6 17:42:34 10° SE 17:45:10 16° ESE 17:45:10 16° ESE
BREEZE-M DEB (TANK) 4.0 17:45:16 10° WSW 17:46:04 11° SW 17:46:50 10° SSW
USA 267 4.3 17:43:32 17° E 17:46:54 25° SE 17:52:05 10° S
Cosmos 1805 Rocket 4.1 17:44:03 10° N 17:48:06 36° ENE 17:51:49 12° SE
SL-08 R/B 4.5 17:42:27 10° S 17:48:38 87° W 17:54:48 10° N
Cosmos 2237 Rocket 3.4 17:47:13 10° NNW 17:51:54 25° NE 17:54:04 20° ENE
FREGAT/IRIS 2.6 17:51:31 14° SSE 17:53:52 53° ENE 17:56:49 10° N
CZ-4 R/B 4.2 17:51:25 10° SSW 17:54:47 23° W 17:58:10 10° NW
SPOT 3 Rocket 4.2 17:50:01 10° S 17:55:09 59° WSW 18:00:20 10° NNW
Cosmos 1400 Rocket 3.8 17:51:18 10° NNW 17:55:17 51° W 17:59:10 10° S
Aureole 2 4.0 17:53:06 10° NNW 17:56:05 82° ENE 17:58:38 15° SSE
Cosmos 1666 Rocket 4.3 17:52:43 10° N 17:56:34 29° ENE 17:57:34 27° E
DMSP B5D1-3 4.4 17:53:54 10° NNE 17:59:03 76° ESE 18:04:11 10° S
SL-16 R/B 3.9 17:56:33 10° N 18:00:06 17° NE 18:01:32 15° NE
GP-B 4.2 17:59:42 10° N 18:03:59 47° W 18:08:14 10° SSW
MOS 1-B Rocket 4.2 18:00:15 17° SE 18:04:21 44° ENE 18:10:07 10° N
Cosmos 1633 Rocket 3.8 18:02:10 10° N 18:06:07 31° ENE 18:06:23 31° E
Cosmos 1908 3.1 18:03:29 10° S 18:07:23 70° E 18:11:17 10° NNE
Cosmos 2098 Rocket 3.5 18:05:47 10° SSE 18:10:01 48° E 18:15:24 10° NNE
COSMOS 2428 2.6 18:06:54 10° NNW 18:12:38 76° ENE 18:16:59 18° SE
H-2A R/B 2.7 18:11:11 10° SSE 18:15:04 89° ENE 18:19:01 10° NNW
Cosmos 1980 4.4 18:09:58 10° NNW 18:15:10 35° NE 18:16:36 31° E
ALOS 3.1 18:11:00 10° S 18:15:32 52° W 18:20:08 10° NNW
Cosmos 1452 Rocket 4.1 18:10:47 10° NNW 18:15:57 58° WSW 18:21:05 10° S
Cosmos 2333 Rocket 2.5 18:10:33 10° NNW 18:16:06 48° NE 18:18:19 32° ESE
Cosmos 2360 Rocket 3.1 18:11:27 10° NW 18:16:55 51° WSW 18:22:21 10° S
GENESIS II 4.3 18:13:07 10° SSW 18:16:59 52° ESE 18:17:33 48° E
HJ-1C 3.2 18:20:21 46° SSE 18:21:16 81° ENE 18:24:43 10° N
Cosmos 1833 4.2 18:16:59 10° SSW 18:22:42 85° WNW 18:28:23 10° NNE
USA 234 3.5 18:21:35 30° E 18:24:52 59° NNE 18:31:17 10° NW
Cosmos 2219 3.5 18:21:50 10° S 18:27:11 41° ESE 18:28:24 37° ENE
FengYun 1-2 T 4.3 18:22:44 10° S 18:28:14 75° WSW 18:33:45 10° NNW
CZ-2D R/B 3.1 18:30:37 64° ENE 18:30:37 64° ENE 18:34:29 10° N
Cosmos 1535 Rocket 4.3 18:27:12 10° S 18:33:17 69° E 18:39:21 10° NNE
Spot 2 Rocket 3.6 18:33:41 47° E 18:34:26 52° ENE 18:39:22 10° N
Cosmos 1315 Rocket 4.5 18:33:22 10° NNW 18:37:05 35° W 18:40:49 10° SSW
ATLAS 5 CENTAUR R/B 4.1 18:34:15 10° NW 18:37:48 18° N 18:40:24 13° NNE
Cosmos 1110 Rocket 4.1 18:32:45 10° NNW 18:38:02 56° ENE 18:38:48 51° E
Resurs 01 Rocket 1.5 18:43:26 69° ENE 18:43:26 69° ENE 18:47:49 10° N
Cosmos 2221 3.1 18:40:59 10° SSW 18:45:14 57° WNW 18:49:33 10° N
Abrixas rocket 3.5 18:46:52 10° W 18:49:04 38° W 18:49:04 38° W
NOSS 0 Rocket 3.8 18:45:02 10° NNW 18:51:15 76° ENE 18:52:48 52° SE
Atlas Centaur 2 4.5 18:51:40 10° SSW 18:52:47 11° S 18:53:26 10° S
Thor Agena Rocket 4.1 18:51:00 10° N 18:56:01 55° WNW 19:00:57 10° SW
Gbstr 26 Del rocket 3.8 18:52:20 10° WNW 18:57:30 67° SSW 18:58:40 54° SSE
Resurs 1-3 3.7 19:00:03 72° NNW 19:00:03 72° NNW 19:04:02 10° NNW
Geosat 4.3 19:00:45 51° NNE 19:00:45 51° NNE 19:05:09 10° NNW
Cosmos 1048 Rocket 3.9 18:55:21 10° SSW 19:00:30 84° WNW 19:03:43 23° NNE
Aureole 2 Rocket 3.4 18:57:22 10° NNW 19:00:28 51° WNW 19:00:28 51° WNW
Cosmos 1821 Rocket 4.3 18:58:52 10° SSW 19:04:59 66° WNW 19:11:14 10° N
SJ-6B 4.5 19:03:18 20° SW 19:05:11 30° W 19:08:32 10° NNW
Lacrosse 5 rocket 3.0 19:02:09 10° WNW 19:05:53 27° N 19:05:56 27° N
Cosmos 2219 Rocket 2.3 19:01:37 10° NNW 19:07:12 69° WSW 19:08:32 51° S
Envisat 2.9 19:08:39 74° SSW 19:09:02 81° WSW 19:14:10 10° NNW
Cosmos 1934 Rocket 4.1 19:06:32 10° SSW 19:12:53 75° W 19:19:18 10° N
Sich 1 4.3 19:17:44 10° NNW 19:21:47 39° W 19:22:19 37° WSW
USA 267 3.1 19:30:55 75° S 19:30:55 75° S 19:37:09 10° SW
Meteor 2-3 Rocket 4.0 19:26:25 10° NNW 19:31:15 63° N 19:31:15 63° N
CZ-4C R/B 3.3 19:27:47 10° SW 19:30:27 32° SW 19:30:27 32° SW
Cosmos 2237 Rocket 2.5 19:30:51 10° NNW 19:35:54 66° WNW 19:35:54 66° WNW
Cosmos 1605 Rocket 4.1 19:37:27 49° SW 19:39:03 69° W 19:45:09 10° N
SL-16 R/B 3.2 19:39:46 10° NNW 19:43:24 39° N 19:43:24 39° N
Cosmos 2333 Rocket 3.5 19:55:07 10° NW 20:00:13 34° WSW 20:00:21 34° WSW
H-2A R/B 4.2 20:06:43 19° N 20:06:43 19° N 20:08:12 10° N
USA 234 3.7 20:08:57 57° W 20:08:57 57° W 20:14:24 10° WNW
Cosmos 2219 4.5 20:06:00 10° WSW 20:10:29 37° WNW 20:10:29 37° WNW
Resurs 01 Rocket 4.4 20:21:01 14° W 20:21:01 14° W 20:22:51 10° NW
ATLAS 5 CENTAUR R/B 4.2 20:19:31 10° NNW 20:21:55 21° N 20:21:55 21° N
